Regional Weather Roundup
Issued by NWS Cleveland, OH

Home | Current Version | Previous Version | Graphics & Text | Print | Product List | Glossary On
Versions: 1 2 3 4 5 6 7 8 9 10 11 12 13 14 15 16 17 18 19 20 21 22 23 24 25 26 27 28 29 30 31 32 33 34 35 36 37 38 39 40 41 42 43 44 45 46 47 48 49 50
000
ASUS41 KCLE 221502
RWRCLE
OHIO REGIONAL WEATHER ROUNDUP
NATIONAL WEATHER SERVICE CLEVELAND, OH
1000 AM EST WED NOV 22 2017

NOTE: "FAIR" INDICATES FEW OR NO CLOUDS BELOW 12,000 FEET WITH NO
SIGNIFICANT WEATHER AND/OR OBSTRUCTIONS TO VISIBILITY.

OHZ001>008-015>018-024>027-034-035-043-044-221600-
   NORTHWEST OHIO

CITY           SKY/WX    TMP DP  RH WIND       PRES   REMARKS
DEFIANCE       CLOUDY    32  18  56 NW7       30.29R WCI  26
FINDLAY        CLOUDY    33  19  56 N12       30.27R WCI  24
TOLEDO EXPRESS CLOUDY    32  21  64 N12       30.28R WCI  23
TOLEDO EXEC    CLOUDY    32  19  58 N10       30.29R WCI  24
LIMA           CLOUDY    31  21  66 N9        30.28R WCI  23
$$

OHZ009>014-019>023-028>033-038-089-221600-
   NORTHEAST OHIO

CITY           SKY/WX    TMP DP  RH WIND       PRES   REMARKS
CLE-HOPKINS    CLOUDY    34  24  67 NW13      30.25R WCI  25
CLE-LAKEFRONT  CLOUDY    34  23  64 NW10      30.23R WCI  26
CUY CO. ARPT   CLOUDY    34  23  64 N16       30.22R WCI  23
LORAIN-ELYRIA  CLOUDY    32  19  58 N10       30.24R WCI  24
ASHTABULA      CLOUDY    33  25  72 NW9       30.19R WCI  25
AKRON-CANTON   CLOUDY    33  25  72 NW10      30.20R WCI  25
WOOSTER        NOT AVBL
MANSFIELD      CLOUDY    31  22  69 NW8       30.22R WCI  23
YOUNGSTOWN     FLURRIES  32  27  81 NW10      30.17R WCI  24
$$

OHZ042-051>053-060>062-070>072-077>081-221600-
  SOUTHWEST OHIO

CITY           SKY/WX    TMP DP  RH WIND       PRES   REMARKS
CINC-COVINGTON MOSUNNY   34  27  75 NW8       30.29R WCI  27
CINC-LUNKEN    PTSUNNY   37  27  67 N7        30.32R
HAMILTON       CLOUDY    34  28  79 NW9       30.32R WCI  27
DAYTON         CLOUDY    33  23  66 N10       30.29R WCI  25
WRIGHT-PAT AFB CLOUDY    34  21  60 N15G21    30.28R WCI  24
DAYTON GENERAL CLOUDY    34  23  64 N14       30.28R WCI  25
WILMINGTON     CLOUDY    32  25  75 N13       30.27R WCI  22
$$

OHZ036-037-039>041-045>050-054>059-063>069-073>076-082>088-221600-
  CENTRAL AND SOUTHEAST OHIO

CITY           SKY/WX    TMP DP  RH WIND       PRES   REMARKS
COLUMBUS       CLOUDY    35  26  69 NW12      30.26R WCI  27
OSU AIRPORT    CLOUDY    34  25  69 NW8       30.26R WCI  27
BOLTON FIELD   CLOUDY    34  25  69 NW6       30.26R WCI  29
RICKENBACK AFB CLOUDY    34  26  70 N10       30.26S WCI  26
NEWARK         CLOUDY    35  25  66 NW8       30.24R WCI  29
MARION         CLOUDY    32  22  66 N12       30.26R WCI  23
LANCASTER      CLOUDY    35  28  75 NW12      30.25R WCI  27
ZANESVILLE     CLOUDY    37  28  70 NW10      30.23R
NEW PHILLY     NOT AVBL
$$



USA.gov is the U.S. government's official web portal to all federal, state and local government web resources and services.